Regional Weather Roundup
Issued by NWS

Home | Current Version | Previous Version | Graphics & Text | Print | Product List | Glossary On
Versions: 1 2 3 4 5 6 7 8 9 10 11 12 13 14 15 16 17 18 19 20 21 22 23 24 25 26 27 28 29 30 31 32 33 34 35 36 37 38 39 40 41 42 43 44 45 46 47 48 49 50
000
ASUS45 KTFX 030610
RWRMT
MONTANA REGIONAL WEATHER ROUNDUP
NATIONAL WEATHER SERVICE GREAT FALLS MT
1200 AM MDT MON AUG 03 2015

NOTE: "FAIR" INDICATES FEW OR NO CLOUDS BELOW 12000 FEET WITH NO
SIGNIFICANT WEATHER AND/OR OBSTRUCTIONS TO VISIBILITY.

MTZ001>007-043-030700-
WEST OF THE DIVIDE

CITY           SKY/WX    TMP DP  RH WIND       PRES   REMARKS
KALISPELL      CLEAR     62  41  46 CALM      29.88R
MISSOULA       PTCLDY    68  34  28 N5        29.91R
BUTTE          PTCLDY    62  36  37 SE7       30.08S
MULLAN PASS    PTCLDY    71  20  14 NW6       30.11F
DEER LODGE       N/A     61  37  41 CALM      30.05S
EUREKA           N/A     70  34  26 CALM      29.87R
HAMILTON         N/A     66  41  39 S3        29.93R
LIBBY            N/A     64  30  27 CALM      29.88R
PLAINS           N/A     66  45  46 CALM      29.89R
RONAN            N/A     60  46  59 CALM      29.95R
$$

MTZ008-052>055-030700-
SOUTHWEST MONTANA

CITY           SKY/WX    TMP DP  RH WIND       PRES   REMARKS
BOZEMAN        PTCLDY    67  42  40 W5        30.01S
DILLON         PTCLDY    58  41  53 S5        30.03R
W YELLOWSTONE  PTCLDY    50  41  71 S3        30.16S
THREE FORKS      N/A     58  58 100 CALM      30.00S
TWIN BRIDGES     N/A     75  32  20 N9        30.00S
$$

MTZ009-010-012-014-046-048-049-054-030700-
EAST SLOPES AND CENTRAL MONTANA

CITY           SKY/WX    TMP DP  RH WIND       PRES   REMARKS
CUT BANK       CLEAR     68  46  45 SE12      29.98S
GREAT FALLS    CLEAR     70  47  43 E10       29.96S
MALMSTROM AFB  CLEAR     68  49  50 SE3       29.96S
HELENA         PTCLDY    72  40  31 CALM      29.98R
CONRAD           N/A     60  49  67 NE2       30.01S
$$

MTZ011-013-016-021-045-047-050-051-030700-
NORTH CENTRAL MONTANA

CITY           SKY/WX    TMP DP  RH WIND       PRES   REMARKS
HAVRE          CLEAR     70  52  52 E12       29.96S
LEWISTOWN      CLEAR     67  45  45 E13       30.05S
CHINOOK          N/A     64  54  68 E7        29.99R
FORT BENTON      N/A     73  46  38 E12G17    29.94S
$$

MTZ017>020-022>027-061-062-030700-
NORTHEAST MONTANA

CITY           SKY/WX    TMP DP  RH WIND       PRES   REMARKS
GLASGOW        CLEAR     63  48  58 E13       30.01S
JORDAN           N/A     66  48  52 E6        30.02R
SIDNEY         CLEAR     61  46  59 NW6       30.03R
WOLF POINT     CLEAR     61  48  62 E5        30.03R
MALTA            N/A     65  52  62 NE1       29.98R
PLENTYWOOD       N/A     61  50  67 N5        30.04S
POPLAR           N/A     59  50  72 CALM      30.03S
SCOBEY           N/A     55  45  69 N1        30.03S
$$

MTZ028>42-056>058-030700-
SOUTHCENTRAL AND SOUTHEAST MONTANA

CITY           SKY/WX    TMP DP  RH WIND       PRES   REMARKS
BAKER          CLEAR     59  46  62 SE6       30.05R
BILLINGS       CLEAR     70  43  37 N9        30.03R
LIVINGSTON     CLEAR     69  42  37 E10       30.04R
MILES CITY     CLEAR     68  48  48 NE9       30.01R
EKALAKA          N/A     66  43  43 E1        30.05R
FORSYTH          N/A     66  48  52 E5        30.01R
LAUREL           N/A     70  39  32 N5        30.01S
ROUNDUP          N/A     68  40  35 CALM      29.96R
$$

REGIONAL REPORTS...DAKOTAS

CITY           SKY/WX    TMP DP  RH WIND       PRES   REMARKS
WILLISTON      CLEAR     63  49  60 N3        30.03R
MINOT          CLEAR     58  50  75 SW8       29.98R
DICKINSON      CLEAR     59  49  69 SE3       30.03R
CROSBY         FAIR      54  54 100 W7        30.03R
BISMARCK       CLEAR     60  54  80 SW6       29.99R
GRAND FORKS    CLEAR     56  49  77 NW7       29.87R
FARGO          CLEAR     57  50  77 W7        29.88R
BUFFALO SD       N/A     62  51  67 NE8       29.99R
RAPID CITY     CLEAR     64  53  67 E6        30.04R
$$

REGIONAL REPORTS...WYOMING/IDAHO/WASHINGTON

CITY           SKY/WX    TMP DP  RH WIND       PRES   REMARKS
GILLETTE       CLEAR     58  49  72 SW3       30.06S
SHERIDAN       CLEAR     60  46  59 CALM      30.05R
BUFFALO WY     CLEAR     65  43  44 W6        30.12S
CODY           PTCLDY    68  39  34 CALM      30.08F
YELLOWSTONE LA   N/A     50  35  56 CALM      30.27S
IDAHO FALLS    MOCLDY    62  44  51 NW8       29.95S
SALMON         MOCLDY    64  45  48 CALM      29.91R
BOISE          MOCLDY    82  44  26 S5        29.77S
SPOKANE        MOCLDY    80  22  11 W6        29.83F
$$

REGIONAL REPORTS...ALBERTA

CITY           SKY/WX    TMP DP  RH WIND       PRES   REMARKS
EDMONTON       CLEAR     68  52  56 SE9       29.93S
CALGARY        PTCLDY    66  52  59 S6        29.97S
LETHBRIDGE     CLEAR     57  54  88 SE6       29.93S
MEDICINE HAT   CLEAR     68  54  60 E8        29.95S
WATERTON GATE    N/A     54  50  87 W2          N/A
CARDSTON         N/A     63  46  55 S2          N/A
ONEFOUR          N/A     63  52  67 E12         N/A
$$

REGIONAL REPORTS...SASKATCHEWAN

CITY           SKY/WX    TMP DP  RH WIND       PRES   REMARKS
SWIFT CURRENT  CLEAR     55  52  88 S8        30.03S
REGINA         PTCLDY    54  52  94 W6        30.01S
SASKATOON      CLEAR     57  52  82 CALM      30.01R
CYPRESS HILLS    N/A     59  48  67 SE7         N/A
VAL MARIE        N/A     57  52  82 NE6         N/A
ROCKGLEN         N/A     59  52  77 E3          N/A
$$



USA.gov is the U.S. government's official web portal to all federal, state and local government web resources and services.